EBBT #6 - L'Ardennes Trophy
Catégorie
M2
La Reid, 05/06/2006, BEL
80km - Classement à l'arrivée
80km 
RangNrNomAgeIOCEquipeTempsMoy.ScrPtsLocalité
1.62TAELMAN Franky41BELGRONTMIJ CYCLIN4:00:30 19.9612437ZELZATE
2.186HEYMANS Stefaan40BEL4:00:31 19.9613434MUIZEN
3.14VASSEUR Thierry42FRAFRANCE VTT4:02:47 19.7714431ETAPLE/SUR/MER
4.179HABETS Jean45NLDCYCLES JEAN HAB4:03:57 19.6816425ST. GEERTRUID
5.267ZINKE Heinz47BEL4:05:58 19.5121410ANTWERPEN
6.377LEFEVER Ludo49BEL4:11:30 19.0930388AARTSELAAR
7.313CLEMENT Pascal41BEL4:15:38 18.7845358TOURNAI
8.429VAN CAUWENBERGHE Luc42BELX-TREME BIKERS4:19:53 18.4757341ZELE
9.40BULLENS Xxx40NLDVOTTEN????4:21:26 18.3659339EERSEL
10.767KOVACS Jan44BEL4:22:55 18.2662336LEEST
11.375LAMBERT Christian40DEUTV GOCH4:27:53 17.9278320GOCH
12.107BLAISE Alain40BELDISTRICAR4:28:11 17.9080318MALMEDY
13.277DERVEAUX Claude41BELMORGAN BLUE4:28:55 17.8585313ZWEVEGEM
14.51CASTREMAN Eric41BELTEAM IRON MAN4:31:24 17.6995303ROMSÉE
15.50SAUTELET Philippe45BELDISTRICAR4:31:49 17.6696302BRUXELLES
16.370KLOMP Ruud42NLDKIVADA MTB TEAM4:36:49 17.34110288VEGHEL
17.694MOMMEN Joel41BELRIDLEY4:37:58 17.27114284GEER
18.82PAUWELS Luc42BELMTBTEAMLANGDORP4:38:57 17.21119279HULSHOUT
19.72SCHÖNFISCH Dirk44DEU4:40:49 17.09127271DORTMUND
20.658MATTHEUS Ben44BELTEAM-2MEGA4:43:09 16.95133265HEIST OP BERG
21.595SERVAIS Arille40BELTRIATHLON HERVE4:43:41 16.92138260PETIT-RECHAIN
22.12DETAILLE Marc44BELAMB THEUX4:44:13 16.89139259SPA
23.853FONCK Gary40BELVTT SURISTER4:48:15 16.65151247JALHAY
24.743KOOIJMAN Marc44NLDKRIEKEL4:49:43 16.57157241AMSTERDAM
25.724WEYNS Peter40BEL4:49:45 16.57158240MERKSEM (ANTWERPEN)
26.278VANDEWALLE Patrick43BELPROV.AFD. O-VL4:49:55 16.56159239EVERGEM
27.789VAN HYFTE Kurt41BEL4:52:07 16.43164234EVERGEM
28.852GILSON Renaud45BEL4:52:17 16.42166232JALHAY
29.230VAN HEESWIJK John48NLD4:52:48 16.39167231SINT-OEDENRODE
30.92MOMMEN Dominique46BELHD CYCLES TEAM4:54:20 16.31171227HUY
31.858WENTING Harrie48NLDBAARS4:55:00 16.27173225HULSEL
32.515SWINKELS Geert47NLD4:57:43 16.12184214LITH
33.738SPOOREN Jeroen40NLD4:58:00 16.11186212T'HERTOGENBOSCH
34.626VAN ROOY Jan40NLDCONTENTE4:58:22 16.09187211EERSEL
35.662SWAANS Hans46NLDCONTENTE4:58:54 16.06190208EERSEL
36.439VAN ROY Wim41BEL5:00:30 15.97197201LOKEREN
37.161FRENK Marcel41NLDMWK LICHT VERZE5:00:49 15.96199199NIJMEGEN
38.924ROSEN Marc46BELGLOUMS5:01:30 15.92202196WAIMES
39.577VALKENBORGHS Marc47BELUNITED BIKERS5:04:27 15.77211187KWAADMECHELEN
40.584NIJS Luc42BELMTB TEAM LANGDO5:05:12 15.73213185LANGDORP
41.137DE ROECK Dirk40BEL2MEGASAECO5:09:38 15.50222176VILVOORDE
42.157ESSENSTAM Rinie42NLDLAST-GEAR5:10:06 15.48223175EERBEEK
43.692VAN DEN BOOGAARD Dre44NLDCONTENTE5:11:11 15.43226172EESEL
44.827VANLANGENAEKER Paul44BEL5:11:50 15.39231167STEVOORT
45.59TEUNISSEN V. MANEN Willem42NLDWV DE METEOOR5:11:57 15.39232166HETEREN
46.189JENNEN Luc41BEL5:12:35 15.36235163BALEN
47.463WINCKELMANS Wim42BEL5:13:58 15.29236162LEUVEN
DNF: abandon; DSQ: disqualifié; Vitesse en km/h
20/11/2019 - 04:46 - 114 Entrées
ChronoRace - Electronic Timing SPRL
http://www.chronorace.be

Page 1 / 3  
EBBT #6 - L'Ardennes Trophy
Catégorie
M2
La Reid, 05/06/2006, BEL
80km - Classement à l'arrivée
80km 
RangNrNomAgeIOCEquipeTempsMoy.ScrPtsLocalité
48.503GENBRUGGE Dirk41BELSOUTHPARKBIKERS5:15:29 15.22240158ERTVELDE
49.661KLINKENBERG John43NLD5:15:53 15.20242156MAASTRICHT
50.36VAN MIRLO Ronny40BEL5:17:09 15.13250148SINT LENAARTS
51.638SCHWANEN Philippe46BELVTT SURISTER5:19:30 15.02255143BAELEN
52.417SANTING Yvan41BELSTOEMPERS BRECH5:19:51 15.01257141WUUSTWEZEL
53.453VERMEERBERGEN Pol46BEL5:20:52 14.96262136WILRIJK
54.365JANSSENS Guido46BEL5:21:11 14.95263135STEKENE
55.786GOOSSENS Patrick41BEL5:21:53 14.91264134ERTVELDE
56.556PRUVOOST Patrick43BEL5:23:35 14.83270128IZEGEM
57.127DE BACKER Erwin49BEL5:25:31 14.75273125ANTWERPEN
58.592JANSEN Peter44NLD5:28:25 14.62282116GELEEN
59.965DEMAN Kris42BEL5:28:26 14.62283115SCHILDE
60.608GORIS Eric43BEL5:28:40 14.60287111KESSEL-LO
61.117CEULEMANS Guy41BELJOYBIKERS5:29:34 14.56290108RONSE
62.878VAN DOORMAAL Wim48NLD5:29:54 14.55291107DIESSEN
63.451VERHEYEN Guido47BEL5:33:45 14.38305100LILLE
64.53DELHAUSSE Patrick41BELAMBTHEUX5:34:19 14.36306100BAELEN
65.675MEURICE Christophe40BELO2BIKERS5:34:41 14.34307100WALCOURT
66.937CARTON Benoit42BELULTEAM5:34:58 14.33308100WATERMAEL-BOITSFORT
67.977DE LAAT Urbain40BEL5:35:55 14.29312100ANTWERPEN
68.413REKKO Bernard48NLD5:36:28 14.27313100MEERSSEN
69.120CONSTANT Albert49BELLES AMIS VTTIST5:38:24 14.18314100HERVE
70.490VAN RAEMDONCK Chris40BEL5:38:28 14.18315100SINT-PAUWELS
71.949ROEFS Patrick40BEL5:39:04 14.16318100MERKSPLAS
72.809ADAMS Ronny43BEL5:43:23 13.98325100EDEGEM
73.146DEJAEGERE Wilfried41BELMEGA-BIKERS5:43:52 13.96327100KONTICH
74.689FERRY Ferry46NLD5:44:11 13.95328100OOSTELBEERS
75.651JACOBS Nicolas44BEL5:44:39 13.93330100PAAL
76.104BEECKMAN Michel40BEL5:46:09 13.87337100BELSELE
77.615DECRAENE Johan43BEL5:48:09 13.79339100DEERLIJK
78.622VAN DER STEEN Willy48BEL5:52:05 13.63351100POPPEL
79.931COPPELMANS Xxx40BEL5:56:08 13.48359100
80.621THIELEMANS Marc49BEL5:58:17 13.40366100POPPEL
81.709VAN DE ZEEUW Jos41NLD5:58:35 13.39367100FORELLEBERG
82.355HAITJEMA Tjeerd45NLD5:59:57 13.34371100KROMMENIE
83.785COOLS Jimmy43BELKARL VAN WYNEND6:00:29 13.32372100EVERGEM
84.633DE SMEDT Paul40BEL6:01:49 13.27376100TESSENDERLO
85.896CRASSON Vincent47BELGLOUMS6:04:07 13.18381100WAIMES
86.966GEEROMS Marc45BEL6:06:10 13.11384100ERPE-MERE
87.343FOURNAUX Rudy40BEL6:06:45 13.09385100YVOIR
88.415ROLLENBERG Rudy41BELPERVELO6:08:40 13.02387100GERAARDSBERGEN
89.849VAN BERLO Hans49NLD26 INCH6:09:50 12.98388100ODILIAPEEL
90.623SPELEERS Pol40BEL6:13:11 12.86395100WAREGEM
91.382LOUW VD Pedro40NLD6:13:50 12.84397100TILBURG
92.812VINCKX Leo45BEL6:16:13 12.76404100RAVELS
93.416RONVAL Pierre42BEL6:20:11 12.63410100PIÉTREBAIS-INCOURT
94.569RADEMAKERS Philip40BEL6:27:01 12.40421100VILVOORDE
DNF: abandon; DSQ: disqualifié; Vitesse en km/h
20/11/2019 - 04:46 - 114 Entrées
ChronoRace - Electronic Timing SPRL
http://www.chronorace.be

Page 2 / 3  
EBBT #6 - L'Ardennes Trophy
Catégorie
M2
La Reid, 05/06/2006, BEL
80km - Classement à l'arrivée
80km 
RangNrNomAgeIOCEquipeTempsMoy.ScrPtsLocalité
95.87MOREAU Louis46BEL6:30:53 12.28426100RIXENSART
96.914VAN DEN BROEK Marc42NLD6:33:04 12.21430100VALKENSWAARD
97.646LEFEVER Rudy44BEL6:34:44 12.16436100SINT-NIKLAAS
98.773HELLEUX Yvon43BEL6:39:03 12.03441100
99.954VAN DER AUWERA Xx41BEL6:39:04 12.03442100HERENTALS
100.817BRUGGEN Michael44DEU6:39:28 12.02443100KOELN
101.835COUSSEMENT Pascal40BEL6:46:02 11.82450100REKKEM
102.792TORFS Wim41BEL6:51:01 11.68453100EKEREN (ANTWERPEN)
103.372KOSTER Rob43NLD7:00:12 11.42458100GOUDA
104.1073BRUNEEL Pascal46BEL7:01:46 11.38459100
105.983DIJSEL BLOEM Willy46BEL7:18:39 10.94474100OVERPELT
106.982BREBELS Johan41BEL7:18:40 10.94475100BREE
107.119COENRAETS Frank46BEL7:39:02 10.46478100MERKSEM
DSQ371KOLENBERG Erik44BEL4:27:48ZOERSEL
DSQ613VAN DEN BOOM Lemny40NLD4:34:49LIMPDE
DNF114BULTEEL Marc40BELTEAM2MEGAMERKSEM
DNF683LEGAIX Danny41BELAMB THEUXSPA
DNF928MOLENDIJK Marcel41NLDBENNEKOM
DNF872SAUVAGE Jean Pierre40BELESNEUX
DNF839VAN DIJCK Koen40BELEKEREN (ANTWERPEN)
DNF: abandon; DSQ: disqualifié; Vitesse en km/h
20/11/2019 - 04:46 - 114 Entrées
ChronoRace - Electronic Timing SPRL
http://www.chronorace.be

Page 3 / 3